Tehachapi, CA

11:51 PM PST on January 20, 2017 (GMT -0800)
Tehachapi

Weather History for KTSP - March, 2014

Change the Weather History Date:

Saturday, March 8, 2014

  Actual Average Record
Temperature  
Mean Temperature 48 °F -  
Max Temperature 64 °F 57 °F 68 °F (2015)
Min Temperature 33 °F 33 °F 24 °F (2012)
Degree Days  
Heating Degree Days 16    
Moisture  
Dew Point 24 °F    
Average Humidity 39    
Maximum Humidity 93    
Minimum Humidity 18    
Precipitation  
Precipitation 0.00 in - - ()
Sea Level Pressure  
Sea Level Pressure 30.23 in    
Wind  
Wind Speed 11 mph (ESE)    
Max Wind Speed 28 mph    
Max Gust Speed 36 mph    
Visibility 10 miles    
Events      
Averages and records for this station are not official NWS values.
T = Trace of Precipitation, MM = Missing Value Source: NWS Daily Summary

Daily Weather History Graph

Daily Weather History Graph

Search for Another Location

Airport or City:

Trip Planner

Search our weather history database for the weather conditions in past years. The results will help you decide how hot, cold, wet, or windy it might be!

Date:

Astronomy

Mar. 08, 2014 Rise Set
Actual Time 6:13 AM PST 5:55 PM PST
Civil Twilight 5:48 AM PST 6:20 PM PST
Nautical Twilight 5:19 AM PST 6:50 PM PST
Astronomical Twilight 4:49 AM PST 7:19 PM PST
Moon 11:12 AM PST (3/8) 12:43 AM PST (3/8)
Length of Visible Light 12h 32m
Length of Day
11h 41m
First Quarter, 53% of the Moon is Illuminated
Mar 8
First Quarter
Mar 16
Full
Mar 23
Last Quarter
Mar 30
New
Apr 7
First Quarter

Hourly Weather History & Observations

Time (PST) Temp. Windchill Dew Point Humidity Pressure Visibility Wind Dir Wind Speed Gust Speed Precip Events Conditions
12:15 AM 33.8 °F - 32.0 °F 93% 30.16 in 9.0 mi Calm Calm - N/A   Clear
12:35 AM 35.6 °F 30.7 °F 32.0 °F 87% 30.17 in 10.0 mi ESE 5.8 mph - N/A   Clear
12:55 AM 35.6 °F 29.2 °F 32.0 °F 87% 30.17 in 10.0 mi ESE 8.1 mph - N/A   Clear
1:15 AM 37.4 °F 31.4 °F 30.2 °F 75% 30.16 in 10.0 mi ESE 8.1 mph - N/A   Clear
1:35 AM 37.4 °F 31.4 °F 28.4 °F 70% 30.16 in 10.0 mi ESE 8.1 mph - N/A   Clear
1:55 AM 39.2 °F 33.6 °F 30.2 °F 70% 30.16 in 10.0 mi ESE 8.1 mph - N/A   Clear
2:15 AM 37.4 °F 30.8 °F 32.0 °F 81% 30.16 in 10.0 mi ESE 9.2 mph - N/A   Clear
2:35 AM 37.4 °F 29.8 °F 28.4 °F 70% 30.16 in 10.0 mi ESE 11.5 mph - N/A   Clear
2:55 AM 37.4 °F 30.3 °F 28.4 °F 70% 30.16 in 10.0 mi SE 10.4 mph - N/A   Clear
3:15 AM 37.4 °F 30.3 °F 26.6 °F 65% 30.16 in 10.0 mi ESE 10.4 mph - N/A   Clear
3:35 AM 41.0 °F 34.3 °F 24.8 °F 53% 30.16 in 10.0 mi SE 11.5 mph - N/A   Clear
3:55 AM 41.0 °F 35.2 °F 23.0 °F 49% 30.17 in 10.0 mi ESE 9.2 mph - N/A   Clear
4:15 AM 41.0 °F 36.4 °F 23.0 °F 49% 30.17 in 10.0 mi ESE 6.9 mph - N/A   Clear
4:35 AM 42.8 °F 37.0 °F 23.0 °F 46% 30.17 in 10.0 mi East 10.4 mph - N/A   Clear
4:55 AM 42.8 °F 35.4 °F 24.8 °F 49% 30.17 in 10.0 mi ESE 15.0 mph - N/A   Clear
5:15 AM 44.6 °F 38.1 °F 23.0 °F 43% 30.18 in 10.0 mi ESE 13.8 mph - N/A   Clear
5:35 AM 44.6 °F 38.1 °F 23.0 °F 43% 30.18 in 10.0 mi ESE 13.8 mph - N/A   Clear
5:55 AM 44.6 °F 38.1 °F 23.0 °F 43% 30.18 in 10.0 mi ESE 13.8 mph - N/A   Clear
6:15 AM 46.4 °F 40.4 °F 23.0 °F 40% 30.19 in 10.0 mi ESE 13.8 mph 19.6 mph N/A   Clear
6:35 AM 44.6 °F 36.9 °F 23.0 °F 43% 30.20 in 10.0 mi ESE 18.4 mph 24.2 mph N/A   Clear
6:55 AM 48.2 °F - 23.0 °F 37% 30.21 in 10.0 mi East 13.8 mph 20.7 mph N/A   Clear
7:15 AM 48.2 °F - 23.0 °F 37% 30.22 in 10.0 mi ESE 11.5 mph 16.1 mph N/A   Clear
7:35 AM 50.0 °F - 24.8 °F 37% 30.23 in 10.0 mi SE 19.6 mph 23.0 mph N/A   Clear
7:55 AM 51.8 °F - 24.8 °F 35% 30.23 in 10.0 mi SE 21.9 mph 29.9 mph N/A   Clear
8:15 AM 53.6 °F - 23.0 °F 30% 30.24 in 9.0 mi ESE 18.4 mph 35.7 mph N/A   Clear
8:35 AM 53.6 °F - 24.8 °F 33% 30.24 in 10.0 mi SE 21.9 mph 33.4 mph N/A   Clear
8:55 AM 53.6 °F - 24.8 °F 33% 30.24 in 9.0 mi ESE 21.9 mph 34.5 mph N/A   Clear
9:15 AM 55.4 °F - 24.8 °F 31% 30.24 in 9.0 mi SE 25.3 mph 34.5 mph N/A   Clear
9:35 AM 55.4 °F - 24.8 °F 31% 30.24 in 9.0 mi SE 27.6 mph 32.2 mph N/A   Clear
9:55 AM 55.4 °F - 23.0 °F 29% 30.24 in 9.0 mi SE 20.7 mph 31.1 mph N/A   Clear
10:15 AM 57.2 °F - 24.8 °F 29% 30.24 in 9.0 mi SE 25.3 mph 31.1 mph N/A   Clear
10:35 AM 57.2 °F - 24.8 °F 29% 30.24 in 7.0 mi SE 24.2 mph 28.8 mph N/A   Clear
10:55 AM 59.0 °F - 24.8 °F 27% 30.24 in 10.0 mi SE 20.7 mph 27.6 mph N/A   Clear
11:15 AM 59.0 °F - 24.8 °F 27% 30.24 in 10.0 mi SE 24.2 mph 31.1 mph N/A   Clear
11:35 AM 59.0 °F - 23.0 °F 25% 30.25 in 10.0 mi SE 19.6 mph 28.8 mph N/A   Clear
11:55 AM 59.0 °F - 23.0 °F 25% 30.24 in 9.0 mi SE 21.9 mph 28.8 mph N/A   Clear
12:15 PM 60.8 °F - 24.8 °F 25% 30.25 in 9.0 mi SE 20.7 mph 29.9 mph N/A   Clear
12:35 PM 62.6 °F - 23.0 °F 22% 30.24 in 9.0 mi SE 17.3 mph 27.6 mph N/A   Clear
12:55 PM 62.6 °F - 23.0 °F 22% 30.24 in 9.0 mi SE 19.6 mph 23.0 mph N/A   Clear
1:15 PM 62.6 °F - 23.0 °F 22% 30.24 in 10.0 mi SE 15.0 mph 24.2 mph N/A   Clear
1:35 PM 62.6 °F - 23.0 °F 22% 30.24 in 10.0 mi SE 15.0 mph 23.0 mph N/A   Clear
1:55 PM 62.6 °F - 23.0 °F 22% 30.24 in 10.0 mi SE 16.1 mph 23.0 mph N/A   Clear
2:15 PM 64.4 °F - 23.0 °F 21% 30.23 in 10.0 mi ESE 13.8 mph - N/A   Clear
2:35 PM 64.4 °F - 21.2 °F 19% 30.22 in 10.0 mi ESE 16.1 mph 20.7 mph N/A   Clear
2:55 PM 64.4 °F - 23.0 °F 21% 30.22 in 10.0 mi SE 16.1 mph - N/A   Clear
3:15 PM 64.4 °F - 19.4 °F 18% 30.22 in 10.0 mi ESE 17.3 mph 21.9 mph N/A   Clear
3:35 PM 62.6 °F - 23.0 °F 22% 30.23 in 10.0 mi SE 10.4 mph - N/A   Clear
3:55 PM 64.4 °F - 19.4 °F 18% 30.23 in 10.0 mi SE 13.8 mph 19.6 mph N/A   Clear
4:15 PM 62.6 °F - 19.4 °F 19% 30.22 in 10.0 mi ESE 12.7 mph - N/A   Clear
4:35 PM 62.6 °F - 19.4 °F 19% 30.23 in 10.0 mi SE 10.4 mph - N/A   Clear
4:55 PM 60.8 °F - 21.2 °F 22% 30.22 in 10.0 mi SE 11.5 mph - N/A   Clear
5:15 PM 59.0 °F - 19.4 °F 22% 30.22 in 10.0 mi SE 9.2 mph - N/A   Clear
5:35 PM 57.2 °F - 23.0 °F 27% 30.23 in 10.0 mi ESE 8.1 mph - N/A   Clear
5:55 PM 55.4 °F - 24.8 °F 31% 30.24 in 10.0 mi ESE 8.1 mph - N/A   Clear
6:15 PM 53.6 °F - 23.0 °F 30% 30.25 in 10.0 mi Calm Calm - N/A   Clear
6:35 PM 51.8 °F - 23.0 °F 33% 30.25 in 10.0 mi Calm Calm - N/A   Clear
6:55 PM 48.2 °F - 24.8 °F 40% 30.26 in 10.0 mi NE 3.5 mph - N/A   Clear
7:15 PM 50.0 °F - 23.0 °F 35% 30.26 in 10.0 mi NNE 3.5 mph - N/A   Clear
7:35 PM 48.2 °F - 24.8 °F 40% 30.27 in 10.0 mi Calm Calm - N/A   Clear
7:55 PM 48.2 °F - 23.0 °F 37% 30.28 in 10.0 mi ESE 6.9 mph - N/A   Clear
8:15 PM 46.4 °F 43.5 °F 23.0 °F 40% 30.28 in 10.0 mi ESE 5.8 mph - N/A   Clear
8:35 PM 46.4 °F 42.9 °F 24.8 °F 43% 30.29 in 10.0 mi ESE 6.9 mph - N/A   Clear
8:55 PM 46.4 °F 42.9 °F 24.8 °F 43% 30.29 in 10.0 mi SE 6.9 mph - N/A   Clear
9:15 PM 46.4 °F 43.5 °F 23.0 °F 40% 30.29 in 10.0 mi East 5.8 mph - N/A   Clear
9:35 PM 44.6 °F 39.7 °F 23.0 °F 43% 30.29 in 10.0 mi SE 9.2 mph - N/A   Clear
9:55 PM 44.6 °F 40.2 °F 23.0 °F 43% 30.30 in 10.0 mi SE 8.1 mph - N/A   Clear
10:15 PM 44.6 °F 39.7 °F 23.0 °F 43% 30.30 in 10.0 mi ESE 9.2 mph - N/A   Clear
10:35 PM 44.6 °F 39.2 °F 24.8 °F 46% 30.30 in 10.0 mi ESE 10.4 mph - N/A   Clear
10:55 PM 46.4 °F 41.5 °F 23.0 °F 40% 30.30 in 10.0 mi ESE 10.4 mph - N/A   Clear
11:15 PM 48.2 °F - 21.2 °F 34% 30.29 in 10.0 mi ESE 12.7 mph - N/A   Clear
11:35 PM 53.6 °F - 19.4 °F 26% 30.30 in 10.0 mi ESE 12.7 mph - N/A   Clear
11:55 PM 50.0 °F - 21.2 °F 32% 30.29 in 10.0 mi ESE 12.7 mph - N/A   Clear